Home   Weather   Trieste   Past weeks

Flag for Italy Past Weather in Trieste, Italy — Yesterday and Last 2 Weeks

Now
39 °F

Clear.


Feels Like: 39 °F
Forecast: 38 / 52 °F
Wind: 1 mph from Northeast

Location: Trieste Airport

Current Time: Dec 10, 2016 at 6:03:15 am

Latest Report: Dec 10, 2016 at 4:55 am


Visibility: 10 mi

Pressure: 30.36 "Hg

Humidity: 93%

Dew Point: 37 °F

Location of TriesteLocation

Past Weather in Trieste — Graph

°F

Trieste Temperature Yesterday

Maximum temperature yesterday: 55 °F (at 11:55 am)
Minimum temperature yesterday: 39 °F (at 12:55 am)
Average temperature yesterday: 44 °F

High & Low Weather Summary for the Past Weeks

 TemperatureHumidityPressure
High63 °F (Nov 25, 8:55 am)100% (Nov 27, 9:55 pm)30.60 "Hg (Nov 27, 9:55 pm)
Low32 °F (Nov 29, 7:55 am)23% (Nov 29, 1:55 pm)29.86 "Hg (Nov 27, 3:55 pm)
Average48 °F65%30.24 "Hg
* Reported Nov 25 4:55 am — Dec 10 4:55 am, Trieste, Weather by CustomWeather, © 2016

Note: Actual official high and low records may vary slightly from our data, if they occured in-between our weather recording intervals... More about our weather records

Advertising

Trieste Weather History for the Previous 24 Hours

Scroll right to see more
 ConditionsComfort  
Time TempWeatherWind HumidityBarometerVisibility
4:55 am
Sat, Dec 10
39 °FClear.1 mph93%30.36 "Hg10 mi
3:55 am39 °FClear.1 mph93%30.36 "Hg10 mi
2:55 am39 °FClear.2 mph93%30.39 "Hg10 mi
1:55 am39 °FClear.2 mph93%30.39 "Hg10 mi
12:55 am39 °FClear.No wind93%30.42 "Hg10 mi
11:55 pm
Fri, Dec 9
41 °FClear.No wind93%30.42 "Hg10 mi
10:55 pm43 °FClear.2 mph81%30.42 "Hg10 mi
9:55 pm43 °FClear.2 mph93%30.42 "Hg10 mi
8:55 pm43 °FClear.2 mph93%30.42 "Hg10 mi
7:55 pm45 °FClear.1 mph87%30.42 "Hg10 mi
6:55 pm43 °FClear.No wind93%30.42 "Hg10 mi
5:55 pm45 °FClear.2 mph93%30.42 "Hg10 mi
4:55 pm45 °FClear.1 mph87%30.42 "Hg10 mi
3:55 pm48 °FSunny.No wind76%30.45 "Hg10 mi
2:55 pm50 °FSunny.No wind71%30.45 "Hg10 mi
1:55 pm52 °FSunny.No wind72%30.45 "Hg10 mi
12:55 pm52 °FSunny.No wind67%30.48 "Hg10 mi
11:55 am55 °FSunny.1 mph63%30.51 "Hg10 mi
10:55 am54 °FSunny.No wind63%30.51 "Hg10 mi
9:55 am48 °FSunny.No wind82%30.48 "Hg10 mi
8:55 am41 °FSunny.1 mph93%30.48 "Hg10 mi
7:55 am39 °FSunny.No wind93%30.48 "Hg10 mi
6:55 am39 °FClear.1 mph87%30.48 "Hg10 mi
Weather by CustomWeather, © 2016

See weather overviewHow to use our weather pages